Change the Weather History Date:

Tuesday, May 29, 2012

  Actual Average Record
Temperature  
Mean Temperature 82 °F 71 °F  
Max Temperature 88 °F 80 °F 99 °F (1941)
Min Temperature 76 °F 61 °F 37 °F (1997)
Degree Days  
Heating Degree Days 0 1  
Month to date heating degree days 0 67  
Since 1 July heating degree days 2311 3228  
Cooling Degree Days 17 6  
Month to date cooling degree days 242 108  
Year to date cooling degree days 344 150  
Growing Degree Days 32 (Base 50)    
Moisture  
Dew Point 71 °F    
Average Humidity 71    
Maximum Humidity 87    
Minimum Humidity 55    
Precipitation  
Precipitation T in 0.14 in 3.34 in (2000)
Month to date precipitation 5.91 3.35  
Year to date precipitation 18.32 16.91  
Snow  
Snow 0.00 in - 0.00 in (2002)
Month to date snowfall 0.0  
Since 1 July snowfall 0.0  
Snow Depth 0.00 in    
Sea Level Pressure  
Sea Level Pressure 29.95 in    
Wind  
Wind Speed 10 mph (SSW)    
Max Wind Speed 18 mph    
Max Gust Speed 25 mph    
Visibility 10 miles    
Events Rain    
T = Trace of Precipitation, MM = Missing Value Source: NWS Daily Summary

Daily Weather History Graph

Daily Weather History Graph

Search for Another Location

Airport or City:

Trip Planner

Search our weather history database for the weather conditions in past years. The results will help you decide how hot, cold, wet, or windy it might be!

Date:

Astronomy

May. 29, 2012 Rise Set
Actual Time 5:49 AM EDT 8:15 PM EDT
Civil Twilight 5:19 AM EDT 8:44 PM EDT
Nautical Twilight 4:43 AM EDT 9:21 PM EDT
Astronomical Twilight 4:03 AM EDT 10:02 PM EDT
Moon 1:53 PM EDT (5/29) 1:30 AM EDT (5/29)
Length of Visible Light 15h 25m
Length of Day
14h 25m
First Quarter, 59% of the Moon is Illuminated
May 29
First Quarter
Jun 4
Full
Jun 11
Last Quarter
Jun 19
New
Jun 26
First Quarter

Hourly Weather History & Observations

Time (EDT) Temp. Heat Index Dew Point Humidity Pressure Visibility Wind Dir Wind Speed Gust Speed Precip Events Conditions
12:54 AM 77.0 °F - 71.1 °F 82% 30.03 in 10.0 mi SSW 6.9 mph - N/A   Clear
1:54 AM 77.0 °F - 71.1 °F 82% 30.02 in 10.0 mi SSW 9.2 mph - N/A   Clear
2:54 AM 75.9 °F - 71.1 °F 85% 30.00 in 10.0 mi SSW 8.1 mph - N/A   Clear
3:54 AM 75.9 °F - 71.1 °F 85% 29.99 in 10.0 mi SW 11.5 mph - N/A   Partly Cloudy
4:18 AM 75.2 °F - 71.6 °F 89% 29.99 in 10.0 mi SW 8.1 mph - N/A   Mostly Cloudy
4:54 AM 75.9 °F - 72.0 °F 87% 29.99 in 9.0 mi SW 3.5 mph - N/A   Overcast
5:54 AM 77.0 °F - 71.1 °F 82% 29.99 in 10.0 mi SW 12.7 mph - N/A   Mostly Cloudy
6:54 AM 77.0 °F - 72.0 °F 84% 30.01 in 10.0 mi SW 6.9 mph - N/A   Overcast
7:19 AM 78.8 °F - 71.6 °F 78% 30.01 in 10.0 mi SW 8.1 mph - N/A   Mostly Cloudy
7:54 AM 79.0 °F - 71.1 °F 77% 30.02 in 10.0 mi SW 11.5 mph - N/A   Mostly Cloudy
8:32 AM 80.6 °F 84.6 °F 71.6 °F 74% 30.01 in 10.0 mi WSW 10.4 mph - N/A   Scattered Clouds
8:54 AM 81.0 °F 84.9 °F 71.1 °F 72% 30.00 in 10.0 mi SW 11.5 mph - N/A   Partly Cloudy
9:54 AM 82.9 °F 87.5 °F 71.1 °F 67% 30.00 in 10.0 mi SSW 12.7 mph 20.7 mph N/A   Partly Cloudy
10:54 AM 84.0 °F 88.4 °F 70.0 °F 63% 29.98 in 10.0 mi SW 12.7 mph - N/A   Partly Cloudy
11:54 AM 86.0 °F 90.7 °F 70.0 °F 59% 29.97 in 10.0 mi SW 13.8 mph 18.4 mph N/A   Scattered Clouds
12:54 PM 88.0 °F 92.9 °F 70.0 °F 55% 29.95 in 10.0 mi South 10.4 mph - N/A   Mostly Cloudy
1:54 PM 86.0 °F 92.2 °F 72.0 °F 63% 29.94 in 10.0 mi South 9.2 mph - N/A   Partly Cloudy
2:54 PM 82.0 °F 86.3 °F 71.1 °F 69% 29.93 in 10.0 mi SSW 11.5 mph - N/A   Clear
3:54 PM 82.9 °F 87.5 °F 71.1 °F 67% 29.92 in 10.0 mi South 9.2 mph - N/A   Clear
4:54 PM 82.0 °F 86.3 °F 71.1 °F 69% 29.89 in 10.0 mi South 8.1 mph - 0.00 in Rain Light Rain
5:54 PM 82.0 °F 86.3 °F 71.1 °F 69% 29.87 in 10.0 mi South 8.1 mph - 0.00 in   Clear
6:54 PM 82.0 °F 86.7 °F 72.0 °F 71% 29.87 in 10.0 mi South 6.9 mph - N/A   Clear
7:54 PM 82.0 °F 86.7 °F 72.0 °F 71% 29.86 in 10.0 mi South 8.1 mph - N/A   Clear
8:54 PM 80.1 °F 83.8 °F 72.0 °F 76% 29.87 in 10.0 mi South 8.1 mph - N/A   Clear
9:54 PM 79.0 °F - 71.1 °F 77% 29.88 in 10.0 mi South 10.4 mph - N/A   Clear
10:54 PM 79.0 °F - 71.1 °F 77% 29.88 in 10.0 mi South 10.4 mph - N/A   Clear
11:54 PM 78.1 °F - 71.1 °F 79% 29.87 in 10.0 mi South 11.5 mph - N/A   Clear